,,,PA_Meas_PMT16A,,PR_Meas_QMR101_102,,RH_Meas_QMH101,,SR_Meas_QMS101,,TA_Meas_QMH101,,GenWind,,GenWind,
date,time,status,PA,status,PR,status,RH,status,SR,status,TA,status,DirAvg,status,SpdAvg,
2012-04-09, 00:00:04,VALID,1000.93,VALID,0,VALID,88.8469,VALID,0,VALID,23.6622,VALID,105,VALID,0.648828,
2012-04-09, 00:01:04,VALID,1000.95,VALID,0,VALID,88.9385,VALID,0,VALID,23.6409,VALID,105,VALID,0.675781,
2012-04-09, 00:02:04,VALID,1000.95,VALID,0,VALID,88.969,VALID,0,VALID,23.6817,VALID,106,VALID,0.615234,
2012-04-09, 00:03:04,VALID,1000.95,VALID,0,VALID,89.0377,VALID,0,VALID,23.6622,VALID,106,VALID,0.450781,
2012-04-09, 00:04:04,VALID,1000.96,VALID,0,VALID,89.1063,VALID,0,VALID,23.6622,VALID,106,VALID,0.259375,
2012-04-09, 00:05:04,VALID,1000.96,VALID,0,VALID,89.1445,VALID,0,VALID,23.6427,VALID,106,VALID,0.00546875,
2012-04-09, 00:06:04,VALID,1000.97,VALID,0,VALID,89.1903,VALID,0,VALID,23.6232,VALID,106,VALID,0,
2012-04-09, 00:07:04,VALID,1000.98,VALID,0,VALID,89.1597,VALID,0,VALID,23.6036,VALID,106,VALID,0,
2012-04-09, 00:08:04,VALID,1000.98,VALID,0,VALID,89.2894,VALID,0,VALID,23.5841,VALID,106,VALID,0,
2012-04-09, 00:09:04,VALID,1000.95,VALID,0,VALID,89.4726,VALID,0,VALID,23.5841,VALID,106,VALID,0.220703,
2012-04-09, 00:10:04,VALID,1000.92,VALID,0,VALID,89.6023,VALID,0,VALID,23.6036,VALID,113,VALID,0.621484,
2012-04-09, 00:11:04,VALID,1000.9,VALID,0,VALID,89.6938,VALID,0,VALID,23.6232,VALID,130,VALID,0.805078,
2012-04-09, 00:12:04,VALID,1000.86,VALID,0,VALID,89.6099,VALID,0,VALID,23.6427,VALID,134,VALID,1.08164,
2012-04-09, 00:13:04,VALID,1000.84,VALID,0,VALID,89.4649,VALID,0,VALID,23.6817,VALID,136,VALID,1.0168,
2012-04-09, 00:14:04,VALID,1000.82,VALID,0,VALID,89.1368,VALID,0,VALID,23.6799,VALID,136,VALID,1.24141,
2012-04-09, 00:15:04,VALID,1000.79,VALID,0,VALID,88.7096,VALID,0,VALID,23.7207,VALID,141,VALID,1.41172,
2012-04-09, 00:16:04,VALID,1000.79,VALID,0,VALID,88.6409,VALID,0,VALID,23.7207,VALID,143,VALID,1.18633,
2012-04-09, 00:17:04,VALID,1000.77,VALID,0,VALID,88.1832,VALID,0,VALID,23.6994,VALID,145,VALID,1.12656,
2012-04-09, 00:18:04,VALID,1000.76,VALID,0,VALID,88.0077,VALID,0,VALID,23.7012,VALID,127,VALID,1.09375,
2012-04-09, 00:19:04,VALID,1000.72,VALID,0,VALID,88,VALID,0,VALID,23.7207,VALID,132,VALID,0.79375,
2012-04-09, 00:20:04,VALID,1000.75,VALID,0,VALID,87.9466,VALID,0,VALID,23.7012,VALID,167,VALID,1.05898,
2012-04-09, 00:21:04,VALID,1000.73,VALID,0,VALID,87.9771,VALID,0,VALID,23.7225,VALID,164,VALID,0.914844,
2012-04-09, 00:22:04,VALID,1000.71,VALID,0,VALID,87.8932,VALID,0,VALID,23.7012,VALID,151,VALID,0.733984,
2012-04-09, 00:23:04,VALID,1000.69,VALID,0,VALID,87.8398,VALID,0,VALID,23.7012,VALID,151,VALID,0.512891,
2012-04-09, 00:24:04,VALID,1000.66,VALID,0,VALID,87.8398,VALID,0,VALID,23.7012,VALID,151,VALID,0,
2012-04-09, 00:25:04,VALID,1000.65,VALID,0,VALID,87.7483,VALID,0,VALID,23.6817,VALID,145,VALID,0.199609,
2012-04-09, 00:26:04,VALID,1000.67,VALID,0,VALID,87.7406,VALID,0,VALID,23.6817,VALID,143,VALID,0.489453,
2012-04-09, 00:27:04,VALID,1000.64,VALID,0,VALID,87.6491,VALID,0,VALID,23.6817,VALID,116,VALID,0.903516,
2012-04-09, 00:28:04,VALID,1000.59,VALID,0,VALID,87.6109,VALID,0,VALID,23.6817,VALID,131,VALID,0.566016,
2012-04-09, 00:29:04,VALID,1000.62,VALID,0,VALID,87.7101,VALID,0,VALID,23.6409,VALID,131,VALID,0.547266,
2012-04-09, 00:30:04,VALID,1000.6,VALID,0,VALID,87.8932,VALID,0,VALID,23.6427,VALID,131,VALID,0.239453,
2012-04-09, 00:31:04,VALID,1000.62,VALID,0,VALID,87.9695,VALID,0,VALID,23.6036,VALID,131,VALID,0.3,
2012-04-09, 00:32:04,VALID,1000.65,VALID,0,VALID,88.1755,VALID,0,VALID,23.6036,VALID,131,VALID,0.38125,
2012-04-09, 00:33:04,VALID,1000.63,VALID,0,VALID,88.2671,VALID,0,VALID,23.6036,VALID,131,VALID,0.223438,
2012-04-09, 00:34:04,VALID,1000.62,VALID,0,VALID,88.2671,VALID,0,VALID,23.5841,VALID,131,VALID,0.15,
2012-04-09, 00:35:04,VALID,1000.62,VALID,0,VALID,88.4654,VALID,0,VALID,23.5646,VALID,131,VALID,0.391797,
2012-04-09, 00:36:04,VALID,1000.63,VALID,0,VALID,88.5417,VALID,0,VALID,23.5646,VALID,108,VALID,0.643359,
2012-04-09, 00:37:04,VALID,1000.56,VALID,0,VALID,88.5723,VALID,0,VALID,23.5238,VALID,98,VALID,0.763672,
2012-04-09, 00:38:04,VALID,1000.55,VALID,0,VALID,88.496,VALID,0,VALID,23.5451,VALID,98,VALID,0.735156,
2012-04-09, 00:39:04,VALID,1000.53,VALID,0,VALID,88.4502,VALID,0,VALID,23.5238,VALID,98,VALID,0.760547,
2012-04-09, 00:40:04,VALID,1000.52,VALID,0,VALID,88.824,VALID,0,VALID,23.5451,VALID,71,VALID,0.694922,
2012-04-09, 00:41:04,VALID,1000.51,VALID,0,VALID,89.1292,VALID,0,VALID,23.5238,VALID,71,VALID,0.497266,
2012-04-09, 00:42:04,VALID,1000.45,VALID,0,VALID,88.8927,VALID,0,VALID,23.5646,VALID,71,VALID,0.226563,
2012-04-09, 00:43:04,VALID,1000.43,VALID,0,VALID,88.8546,VALID,0,VALID,23.5433,VALID,71,VALID,0.1375,
2012-04-09, 00:44:04,VALID,1000.45,VALID,0,VALID,88.8774,VALID,0,VALID,23.5646,VALID,71,VALID,0,
2012-04-09, 00:45:04,VALID,1000.43,VALID,0,VALID,88.9919,VALID,0,VALID,23.5451,VALID,71,VALID,0.278125,
2012-04-09, 00:46:04,VALID,1000.45,VALID,0,VALID,88.8851,VALID,0,VALID,23.5238,VALID,122,VALID,0.382031,
2012-04-09, 00:47:04,VALID,1000.43,VALID,0,VALID,88.618,VALID,0,VALID,23.5451,VALID,131,VALID,0.577344,
2012-04-09, 00:48:04,VALID,1000.46,VALID,0,VALID,88.412,VALID,0,VALID,23.5274,VALID,119,VALID,0.755469,
2012-04-09, 00:49:04,VALID,1000.47,VALID,0,VALID,88.3892,VALID,0,VALID,23.5061,VALID,120,VALID,0.605078,
2012-04-09, 00:50:04,VALID,1000.47,VALID,0,VALID,88.3892,VALID,0,VALID,23.4866,VALID,118,VALID,0.675,
2012-04-09, 00:51:04,VALID,1000.48,VALID,0,VALID,88.351,VALID,0,VALID,23.4866,VALID,118,VALID,0.55625,
2012-04-09, 00:52:04,VALID,1000.52,VALID,0,VALID,88.206,VALID,0,VALID,23.4653,VALID,122,VALID,0.817969,
2012-04-09, 00:53:04,VALID,1000.53,VALID,0,VALID,88.0611,VALID,0,VALID,23.4671,VALID,132,VALID,0.741797,
2012-04-09, 00:54:04,VALID,1000.51,VALID,0,VALID,88.0229,VALID,0,VALID,23.428,VALID,115,VALID,0.995313,
2012-04-09, 00:55:04,VALID,1000.56,VALID,0,VALID,88.0687,VALID,0,VALID,23.428,VALID,108,VALID,0.675391,
2012-04-09, 00:56:04,VALID,1000.51,VALID,0,VALID,88.1679,VALID,0,VALID,23.4085,VALID,108,VALID,0.764453,
2012-04-09, 00:57:04,VALID,1000.52,VALID,0,VALID,88.2976,VALID,0,VALID,23.389,VALID,98,VALID,0.798047,
2012-04-09, 00:58:04,VALID,1000.52,VALID,0,VALID,88.3968,VALID,0,VALID,23.3695,VALID,95,VALID,0.611328,
2012-04-09, 00:59:04,VALID,1000.49,VALID,0,VALID,88.5341,VALID,0,VALID,23.35,VALID,95,VALID,0.587891,
2012-04-09, 01:00:04,VALID,1000.5,VALID,0,VALID,88.6943,VALID,0,VALID,23.3695,VALID,69,VALID,0.719141,
2012-04-09, 01:01:04,VALID,1000.49,VALID,0,VALID,88.7706,VALID,0.104696,VALID,23.3695,VALID,75,VALID,0.719531,
2012-04-09, 01:02:04,VALID,1000.47,VALID,0,VALID,88.9309,VALID,0,VALID,23.3287,VALID,84,VALID,0.85,
2012-04-09, 01:03:04,VALID,1000.48,VALID,0,VALID,89.0529,VALID,0.104696,VALID,23.3695,VALID,88,VALID,0.8375,
2012-04-09, 01:04:04,VALID,1000.47,VALID,0,VALID,89.1368,VALID,0,VALID,23.35,VALID,89,VALID,0.592969,
2012-04-09, 01:05:04,VALID,1000.44,VALID,0,VALID,89.2894,VALID,0,VALID,23.3305,VALID,89,VALID,0.840625,
2012-04-09, 01:06:04,VALID,1000.45,VALID,0,VALID,89.5641,VALID,0.104696,VALID,23.35,VALID,91,VALID,0.928906,
2012-04-09, 01:07:04,VALID,1000.44,VALID,0,VALID,89.6328,VALID,0.104696,VALID,23.35,VALID,99,VALID,1.1168,
2012-04-09, 01:08:04,VALID,1000.42,VALID,0,VALID,89.4954,VALID,0,VALID,23.3092,VALID,90,VALID,0.969141,
2012-04-09, 01:09:04,VALID,1000.48,VALID,0,VALID,89.4802,VALID,0,VALID,23.2897,VALID,89,VALID,0.757813,
2012-04-09, 01:10:04,VALID,1000.42,VALID,0,VALID,89.4878,VALID,0,VALID,23.2897,VALID,89,VALID,0.605078,
2012-04-09, 01:11:04,VALID,1000.43,VALID,0,VALID,89.4649,VALID,0,VALID,23.2702,VALID,90,VALID,0.940625,
2012-04-09, 01:12:04,VALID,1000.41,VALID,0,VALID,89.4191,VALID,0,VALID,23.2507,VALID,91,VALID,0.526953,
2012-04-09, 01:13:04,VALID,1000.43,VALID,0,VALID,89.4573,VALID,0,VALID,23.2524,VALID,92,VALID,0.731641,
2012-04-09, 01:14:04,VALID,1000.4,VALID,0,VALID,89.4191,VALID,0,VALID,23.2117,VALID,93,VALID,0.333203,
2012-04-09, 01:15:04,VALID,1000.39,VALID,0,VALID,89.3581,VALID,0,VALID,23.2134,VALID,93,VALID,0,
2012-04-09, 01:16:04,VALID,1000.36,VALID,0,VALID,89.3963,VALID,0,VALID,23.1744,VALID,93,VALID,0,
2012-04-09, 01:17:04,VALID,1000.34,VALID,0,VALID,89.4573,VALID,0,VALID,23.1744,VALID,93,VALID,0,
2012-04-09, 01:18:04,VALID,1000.34,VALID,0,VALID,89.4802,VALID,0,VALID,23.1354,VALID,93,VALID,0,
2012-04-09, 01:19:04,VALID,1000.33,VALID,0,VALID,89.6328,VALID,0,VALID,23.1354,VALID,93,VALID,0,
2012-04-09, 01:20:04,VALID,1000.29,VALID,0,VALID,89.793,VALID,0,VALID,23.0964,VALID,93,VALID,0,
2012-04-09, 01:21:04,VALID,1000.27,VALID,0,VALID,89.854,VALID,0,VALID,23.0964,VALID,93,VALID,0,
2012-04-09, 01:22:04,VALID,1000.29,VALID,0,VALID,89.8998,VALID,0,VALID,23.0964,VALID,93,VALID,0,
2012-04-09, 01:23:04,VALID,1000.26,VALID,0,VALID,89.8769,VALID,0,VALID,23.0964,VALID,93,VALID,0.555078,
2012-04-09, 01:24:04,VALID,1000.26,VALID,0,VALID,89.8922,VALID,0,VALID,23.0769,VALID,93,VALID,0.275,
2012-04-09, 01:25:04,VALID,1000.25,VALID,0,VALID,89.8846,VALID,0,VALID,23.0573,VALID,93,VALID,0.325,
2012-04-09, 01:26:04,VALID,1000.21,VALID,0,VALID,89.8617,VALID,0,VALID,23.0573,VALID,93,VALID,0.502734,
2012-04-09, 01:27:04,VALID,1000.25,VALID,0,VALID,89.8159,VALID,0,VALID,23.0573,VALID,82,VALID,0.652734,
2012-04-09, 01:28:04,VALID,1000.24,VALID,0,VALID,89.7396,VALID,0,VALID,23.0573,VALID,83,VALID,0.73125,
2012-04-09, 01:29:04,VALID,1000.25,VALID,0,VALID,89.6328,VALID,0,VALID,23.0786,VALID,73,VALID,0.823438,
2012-04-09, 01:30:04,VALID,1000.24,VALID,0,VALID,89.6175,VALID,0,VALID,23.0573,VALID,78,VALID,0.639844,
2012-04-09, 01:31:04,VALID,1000.27,VALID,0,VALID,89.648,VALID,0,VALID,23.0573,VALID,78,VALID,0.265234,
2012-04-09, 01:32:04,VALID,1000.25,VALID,0,VALID,89.6175,VALID,0,VALID,23.0556,VALID,78,VALID,0.121484,
2012-04-09, 01:33:04,VALID,1000.26,VALID,0,VALID,89.5336,VALID,0,VALID,23.0769,VALID,78,VALID,0.0550781,
2012-04-09, 01:34:04,VALID,1000.27,VALID,0,VALID,89.4726,VALID,0,VALID,23.0378,VALID,78,VALID,0.342578,
2012-04-09, 01:35:04,VALID,1000.25,VALID,0,VALID,89.4344,VALID,0,VALID,23.0378,VALID,78,VALID,0.103516,
2012-04-09, 01:36:04,VALID,1000.25,VALID,0,VALID,89.4344,VALID,0,VALID,23.0378,VALID,78,VALID,0.239844,
2012-04-09, 01:37:04,VALID,1000.21,VALID,0,VALID,89.4344,VALID,0,VALID,23.0166,VALID,78,VALID,0.482031,
2012-04-09, 01:38:04,VALID,1000.22,VALID,0,VALID,89.4573,VALID,0.104696,VALID,23.0166,VALID,101,VALID,0,
2012-04-09, 01:39:04,VALID,1000.2,VALID,0,VALID,89.3657,VALID,0,VALID,23.0573,VALID,132,VALID,0,
2012-04-09, 01:40:04,VALID,1000.18,VALID,0,VALID,89.3581,VALID,0,VALID,23.0378,VALID,132,VALID,0,
2012-04-09, 01:41:04,VALID,1000.15,VALID,0,VALID,89.2818,VALID,0,VALID,23.0573,VALID,132,VALID,0,
2012-04-09, 01:42:04,VALID,1000.16,VALID,0,VALID,89.1368,VALID,0,VALID,23.0378,VALID,132,VALID,0,
2012-04-09, 01:43:04,VALID,1000.12,VALID,0,VALID,89.0911,VALID,0.104696,VALID,23.0166,VALID,132,VALID,0,
2012-04-09, 01:44:04,VALID,1000.16,VALID,0,VALID,89.1445,VALID,0,VALID,23.0166,VALID,132,VALID,0,
2012-04-09, 01:45:04,VALID,1000.13,VALID,0,VALID,89.2437,VALID,0,VALID,23.0166,VALID,132,VALID,0,
2012-04-09, 01:46:04,VALID,1000.09,VALID,0,VALID,89.1826,VALID,0,VALID,23.0378,VALID,132,VALID,0,
2012-04-09, 01:47:04,VALID,1000.05,VALID,0,VALID,89.1292,VALID,0.104696,VALID,23.0166,VALID,132,VALID,0,
2012-04-09, 01:48:04,VALID,1000.04,VALID,0,VALID,89.0834,VALID,0,VALID,22.9971,VALID,132,VALID,0,
2012-04-09, 01:49:04,VALID,1000,VALID,0,VALID,88.9995,VALID,0.104696,VALID,22.9971,VALID,132,VALID,0,
2012-04-09, 01:50:04,VALID,999.998,VALID,0,VALID,88.9309,VALID,0,VALID,22.9971,VALID,132,VALID,0,
2012-04-09, 01:51:04,VALID,999.958,VALID,0,VALID,88.4349,VALID,0,VALID,22.9988,VALID,152,VALID,0,
2012-04-09, 01:52:04,VALID,999.907,VALID,0,VALID,88.1374,VALID,0,VALID,22.9988,VALID,163,VALID,0.383984,
2012-04-09, 01:53:04,VALID,999.942,VALID,0,VALID,87.9695,VALID,0,VALID,23.0183,VALID,155,VALID,1.01406,
2012-04-09, 01:54:04,VALID,999.925,VALID,0,VALID,87.9009,VALID,0,VALID,23.0378,VALID,160,VALID,1.09648,
2012-04-09, 01:55:04,VALID,999.946,VALID,0,VALID,87.794,VALID,0,VALID,23.0573,VALID,169,VALID,0.891016,
2012-04-09, 01:56:04,VALID,999.941,VALID,0,VALID,87.7254,VALID,0,VALID,23.0573,VALID,154,VALID,0.825391,
2012-04-09, 01:57:04,VALID,999.946,VALID,0,VALID,87.6109,VALID,0.104696,VALID,23.0361,VALID,157,VALID,0.906641,
2012-04-09, 01:58:04,VALID,999.946,VALID,0,VALID,87.5957,VALID,0,VALID,23.0556,VALID,148,VALID,0.716797,
2012-04-09, 01:59:04,VALID,999.989,VALID,0,VALID,87.4812,VALID,0,VALID,23.0751,VALID,148,VALID,0.811719,
2012-04-09, 02:00:04,VALID,999.962,VALID,0,VALID,87.466,VALID,0,VALID,23.0964,VALID,148,VALID,0.467969,
2012-04-09, 02:01:04,VALID,999.981,VALID,0,VALID,87.3744,VALID,0,VALID,23.0751,VALID,148,VALID,0.723047,
2012-04-09, 02:02:04,VALID,1000,VALID,0,VALID,87.3515,VALID,0.104696,VALID,23.0964,VALID,148,VALID,0.430469,
2012-04-09, 02:03:04,VALID,999.998,VALID,0,VALID,87.3592,VALID,0,VALID,23.0964,VALID,148,VALID,0.335547,
2012-04-09, 02:04:04,VALID,1000.05,VALID,0,VALID,87.3973,VALID,0,VALID,23.0964,VALID,143,VALID,0.520312,
2012-04-09, 02:05:04,VALID,1000.03,VALID,0,VALID,87.4126,VALID,0,VALID,23.0556,VALID,142,VALID,0.295703,
2012-04-09, 02:06:04,VALID,1000.03,VALID,0,VALID,87.4126,VALID,0,VALID,23.0769,VALID,142,VALID,0.250781,
2012-04-09, 02:07:04,VALID,1000.05,VALID,0,VALID,87.4507,VALID,0.104696,VALID,23.0361,VALID,142,VALID,0,
2012-04-09, 02:08:04,VALID,1000.05,VALID,0,VALID,87.4431,VALID,0.104696,VALID,23.0361,VALID,142,VALID,0,
2012-04-09, 02:09:04,VALID,1000.03,VALID,0,VALID,87.5346,VALID,0.104696,VALID,22.9971,VALID,142,VALID,0,
2012-04-09, 02:10:04,VALID,1000.04,VALID,0,VALID,87.6414,VALID,0,VALID,22.9988,VALID,142,VALID,0.0570313,
2012-04-09, 02:11:04,VALID,1000.04,VALID,0,VALID,87.8169,VALID,0.104696,VALID,23.0183,VALID,142,VALID,0.255078,
2012-04-09, 02:12:04,VALID,1000.06,VALID,0,VALID,87.9848,VALID,0.104696,VALID,22.9776,VALID,142,VALID,0.380078,
2012-04-09, 02:13:04,VALID,1000.05,VALID,0,VALID,88.0763,VALID,0.104696,VALID,22.9776,VALID,142,VALID,0.492188,
2012-04-09, 02:14:04,VALID,1000.05,VALID,0,VALID,88.1679,VALID,0,VALID,23.0183,VALID,121,VALID,0.701953,
2012-04-09, 02:15:04,VALID,1000.04,VALID,0,VALID,88.2518,VALID,0.104696,VALID,22.9988,VALID,121,VALID,0.580078,
2012-04-09, 02:16:04,VALID,1000.05,VALID,0,VALID,88.3052,VALID,0,VALID,23.0183,VALID,121,VALID,0.665625,
2012-04-09, 02:17:04,VALID,1000.05,VALID,0,VALID,88.2823,VALID,0.104696,VALID,23.0166,VALID,121,VALID,0.708984,
2012-04-09, 02:18:04,VALID,1000.06,VALID,0,VALID,88.2289,VALID,0,VALID,23.0361,VALID,101,VALID,0.95625,
2012-04-09, 02:19:04,VALID,1000.04,VALID,0,VALID,88.0611,VALID,0.104696,VALID,23.0769,VALID,101,VALID,0.553125,
2012-04-09, 02:20:04,VALID,1000.02,VALID,0,VALID,88.0992,VALID,0.104696,VALID,23.0964,VALID,107,VALID,0.791406,
2012-04-09, 02:21:04,VALID,1000.02,VALID,0,VALID,87.9924,VALID,0,VALID,23.0964,VALID,118,VALID,0.6,
2012-04-09, 02:22:04,VALID,1000.04,VALID,0,VALID,87.8932,VALID,0,VALID,23.0964,VALID,115,VALID,0.833594,
2012-04-09, 02:23:04,VALID,1000.03,VALID,0,VALID,87.8703,VALID,0.104696,VALID,23.0946,VALID,115,VALID,0.897266,
2012-04-09, 02:24:04,VALID,1000.05,VALID,0,VALID,87.8627,VALID,0.104696,VALID,23.0946,VALID,105,VALID,0.555078,
2012-04-09, 02:25:04,VALID,1000.06,VALID,0,VALID,87.9619,VALID,0.104696,VALID,23.1141,VALID,105,VALID,0.389844,
2012-04-09, 02:26:04,VALID,1000.08,VALID,0,VALID,88.0534,VALID,0,VALID,23.1159,VALID,105,VALID,0.476563,
2012-04-09, 02:27:04,VALID,1000.04,VALID,0,VALID,88.2671,VALID,0.104696,VALID,23.0751,VALID,105,VALID,0.135547,
2012-04-09, 02:28:04,VALID,1000.09,VALID,0,VALID,88.4807,VALID,0.104696,VALID,23.0751,VALID,105,VALID,0.164453,
2012-04-09, 02:29:04,VALID,1000.08,VALID,0,VALID,88.4883,VALID,0,VALID,23.0556,VALID,105,VALID,0,
2012-04-09, 02:30:04,VALID,1000.06,VALID,0,VALID,88.5036,VALID,0,VALID,23.0769,VALID,105,VALID,0,
2012-04-09, 02:31:04,VALID,1000.07,VALID,0,VALID,88.496,VALID,0.104696,VALID,23.0556,VALID,105,VALID,0,
2012-04-09, 02:32:04,VALID,1000.09,VALID,0,VALID,88.496,VALID,0.104696,VALID,23.0361,VALID,105,VALID,0,
2012-04-09, 02:33:04,VALID,1000.12,VALID,0,VALID,88.4731,VALID,0,VALID,23.0166,VALID,105,VALID,0.177344,
2012-04-09, 02:34:04,VALID,1000.08,VALID,0,VALID,88.4502,VALID,0.104696,VALID,22.9971,VALID,105,VALID,0.123438,
2012-04-09, 02:35:04,VALID,1000.07,VALID,0,VALID,88.5494,VALID,0.104696,VALID,22.9776,VALID,106,VALID,0.429297,
2012-04-09, 02:36:04,VALID,1000.07,VALID,0,VALID,88.7249,VALID,0,VALID,22.9776,VALID,120,VALID,0.501562,
2012-04-09, 02:37:04,VALID,1000.06,VALID,0,VALID,88.7477,VALID,0,VALID,22.9776,VALID,120,VALID,0.616016,
2012-04-09, 02:38:04,VALID,1000.06,VALID,0,VALID,88.8698,VALID,0,VALID,22.9776,VALID,120,VALID,0.753906,
2012-04-09, 02:39:04,VALID,1000.06,VALID,0,VALID,88.9919,VALID,0,VALID,23.0183,VALID,120,VALID,0.579687,
2012-04-09, 02:40:04,VALID,1000.09,VALID,0,VALID,88.9995,VALID,0,VALID,23.0183,VALID,120,VALID,0.750391,
2012-04-09, 02:41:04,VALID,1000.06,VALID,0,VALID,89.0529,VALID,0,VALID,23.0166,VALID,120,VALID,0.621094,
2012-04-09, 02:42:04,VALID,1000.07,VALID,0,VALID,89.1521,VALID,0.104696,VALID,23.0166,VALID,99,VALID,0.915625,
2012-04-09, 02:43:04,VALID,1000.05,VALID,0,VALID,89.2437,VALID,0,VALID,23.0361,VALID,99,VALID,0.746094,
2012-04-09, 02:44:04,VALID,1000.03,VALID,0,VALID,89.3276,VALID,0.104696,VALID,23.0378,VALID,99,VALID,0.632422,
2012-04-09, 02:45:04,VALID,1000.04,VALID,0,VALID,89.4039,VALID,0.104696,VALID,23.0166,VALID,100,VALID,0.531641,
2012-04-09, 02:46:04,VALID,1000.07,VALID,0,VALID,89.4497,VALID,0,VALID,23.0378,VALID,102,VALID,0.571875,
2012-04-09, 02:47:04,VALID,1000.08,VALID,0,VALID,89.4115,VALID,0,VALID,23.0166,VALID,102,VALID,0.411328,
2012-04-09, 02:48:04,VALID,1000.12,VALID,0,VALID,89.4573,VALID,0,VALID,23.0166,VALID,102,VALID,0.467969,
2012-04-09, 02:49:04,VALID,1000.09,VALID,0,VALID,89.3352,VALID,0,VALID,23.0166,VALID,102,VALID,0.326953,
2012-04-09, 02:50:04,VALID,1000.14,VALID,0,VALID,89.3963,VALID,0,VALID,23.0378,VALID,102,VALID,0.164063,
2012-04-09, 02:51:04,VALID,1000.13,VALID,0,VALID,89.3352,VALID,0,VALID,23.0378,VALID,102,VALID,0.289063,
2012-04-09, 02:52:04,VALID,1000.08,VALID,0,VALID,89.4802,VALID,0,VALID,23.0591,VALID,83,VALID,0.438281,
2012-04-09, 02:53:04,VALID,1000.09,VALID,0,VALID,89.4191,VALID,0,VALID,23.0573,VALID,83,VALID,0.325,
2012-04-09, 02:54:04,VALID,1000.1,VALID,0,VALID,89.3352,VALID,0,VALID,23.0591,VALID,83,VALID,0.595703,
2012-04-09, 02:55:04,VALID,1000.09,VALID,0,VALID,89.3657,VALID,0,VALID,23.0573,VALID,123,VALID,0.540625,
2012-04-09, 02:56:04,VALID,1000.1,VALID,0,VALID,89.2971,VALID,0,VALID,23.0786,VALID,123,VALID,0.25625,
2012-04-09, 02:57:04,VALID,1000.11,VALID,0,VALID,89.3276,VALID,0,VALID,23.0769,VALID,123,VALID,0.484766,
2012-04-09, 02:58:04,VALID,1000.11,VALID,0,VALID,89.2589,VALID,0,VALID,23.0573,VALID,123,VALID,0.330469,
2012-04-09, 02:59:04,VALID,1000.1,VALID,0,VALID,89.3123,VALID,0,VALID,23.0769,VALID,123,VALID,0.557813,
2012-04-09, 03:00:05,VALID,1000.1,VALID,0,VALID,89.3123,VALID,0,VALID,23.0769,VALID,111,VALID,0.55,
2012-04-09, 03:01:05,VALID,1000.08,VALID,0,VALID,89.2132,VALID,0,VALID,23.0769,VALID,111,VALID,0.472656,
2012-04-09, 03:02:05,VALID,1000.13,VALID,0,VALID,89.3505,VALID,0,VALID,23.0964,VALID,111,VALID,0.293359,
2012-04-09, 03:03:05,VALID,1000.11,VALID,0,VALID,89.3352,VALID,0,VALID,23.0964,VALID,111,VALID,0.260938,
2012-04-09, 03:04:05,VALID,1000.09,VALID,0,VALID,89.2666,VALID,0,VALID,23.0964,VALID,111,VALID,0.310937,
2012-04-09, 03:05:05,VALID,1000.12,VALID,0,VALID,89.1903,VALID,0,VALID,23.0964,VALID,111,VALID,0.0316406,
2012-04-09, 03:06:05,VALID,1000.08,VALID,0,VALID,88.9919,VALID,0,VALID,23.0981,VALID,111,VALID,0.235156,
2012-04-09, 03:07:05,VALID,1000.07,VALID,0,VALID,88.6562,VALID,0,VALID,23.0786,VALID,130,VALID,0.710547,
2012-04-09, 03:08:05,VALID,1000.06,VALID,0,VALID,88.4044,VALID,0,VALID,23.0573,VALID,137,VALID,1.01367,
2012-04-09, 03:09:05,VALID,1000.05,VALID,0,VALID,88.2518,VALID,0,VALID,23.0183,VALID,102,VALID,1.10273,
2012-04-09, 03:10:05,VALID,1000.01,VALID,0,VALID,88.2366,VALID,0,VALID,22.9988,VALID,112,VALID,0.915625,
2012-04-09, 03:11:05,VALID,1000.01,VALID,0,VALID,88.1145,VALID,0,VALID,23.0006,VALID,112,VALID,0.535547,
2012-04-09, 03:12:05,VALID,999.982,VALID,0,VALID,88.2747,VALID,0,VALID,22.9598,VALID,119,VALID,0.553516,
2012-04-09, 03:13:05,VALID,999.969,VALID,0,VALID,88.3281,VALID,0,VALID,22.9403,VALID,129,VALID,0,
2012-04-09, 03:14:05,VALID,999.95,VALID,0,VALID,88.2747,VALID,0,VALID,22.9208,VALID,126,VALID,0.483984,
2012-04-09, 03:15:05,VALID,999.949,VALID,0,VALID,88.2213,VALID,0,VALID,22.8818,VALID,115,VALID,0.330078,
2012-04-09, 03:16:05,VALID,999.953,VALID,0,VALID,88.145,VALID,0,VALID,22.8623,VALID,139,VALID,0.619141,
2012-04-09, 03:17:05,VALID,999.964,VALID,0,VALID,88.145,VALID,0,VALID,22.8427,VALID,140,VALID,0.221094,
2012-04-09, 03:18:05,VALID,999.984,VALID,0,VALID,88.1908,VALID,0,VALID,22.8445,VALID,140,VALID,0.350391,
2012-04-09, 03:19:05,VALID,999.992,VALID,0,VALID,88.2137,VALID,0,VALID,22.8055,VALID,141,VALID,0.383594,
2012-04-09, 03:20:05,VALID,1000.03,VALID,0,VALID,88.2289,VALID,0,VALID,22.7842,VALID,141,VALID,0.372266,
2012-04-09, 03:21:05,VALID,1000.04,VALID,0,VALID,88.2289,VALID,0.104696,VALID,22.7842,VALID,151,VALID,0.454297,
2012-04-09, 03:22:05,VALID,1000,VALID,0,VALID,88.2137,VALID,0,VALID,22.763,VALID,149,VALID,0.879297,
2012-04-09, 03:23:05,VALID,1000.01,VALID,0,VALID,88.2289,VALID,0.104696,VALID,22.763,VALID,151,VALID,0.616016,
2012-04-09, 03:24:05,VALID,1000,VALID,0,VALID,88.2213,VALID,0,VALID,22.763,VALID,152,VALID,0.199609,
2012-04-09, 03:25:05,VALID,999.967,VALID,0,VALID,88.2289,VALID,0.104696,VALID,22.7647,VALID,143,VALID,0,
2012-04-09, 03:26:05,VALID,999.982,VALID,0,VALID,88.1908,VALID,0.104696,VALID,22.7825,VALID,190,VALID,0.95,
2012-04-09, 03:27:05,VALID,999.977,VALID,0,VALID,88.1374,VALID,0,VALID,22.8232,VALID,150,VALID,0.558594,
2012-04-09, 03:28:05,VALID,999.956,VALID,0,VALID,88.0153,VALID,0,VALID,22.8215,VALID,149,VALID,0.645703,
2012-04-09, 03:29:05,VALID,999.966,VALID,0,VALID,87.878,VALID,0.104696,VALID,22.8605,VALID,139,VALID,0.698828,
2012-04-09, 03:30:05,VALID,999.961,VALID,0,VALID,87.794,VALID,0.104696,VALID,22.8818,VALID,136,VALID,0.840625,
2012-04-09, 03:31:05,VALID,999.96,VALID,0,VALID,87.7559,VALID,0,VALID,22.8818,VALID,130,VALID,1.04219,
2012-04-09, 03:32:05,VALID,999.933,VALID,0,VALID,87.6949,VALID,0,VALID,22.88,VALID,131,VALID,0.925781,
2012-04-09, 03:33:05,VALID,999.914,VALID,0,VALID,87.7101,VALID,0.104696,VALID,22.8605,VALID,135,VALID,0.696875,
2012-04-09, 03:34:05,VALID,999.924,VALID,0,VALID,87.7483,VALID,0.104696,VALID,22.8605,VALID,135,VALID,0.721484,
2012-04-09, 03:35:05,VALID,999.894,VALID,0,VALID,87.8093,VALID,0.104696,VALID,22.841,VALID,135,VALID,0.446094,
2012-04-09, 03:36:05,VALID,999.905,VALID,0,VALID,87.8398,VALID,0,VALID,22.8215,VALID,135,VALID,0.213672,
2012-04-09, 03:37:05,VALID,999.901,VALID,0,VALID,87.9085,VALID,0.104696,VALID,22.8215,VALID,135,VALID,0.230469,
2012-04-09, 03:38:05,VALID,999.914,VALID,0,VALID,88.0992,VALID,0.104696,VALID,22.8215,VALID,132,VALID,0.414844,
2012-04-09, 03:39:05,VALID,999.936,VALID,0,VALID,88.2442,VALID,0,VALID,22.7825,VALID,118,VALID,0.607813,
2012-04-09, 03:40:05,VALID,999.937,VALID,0,VALID,88.3586,VALID,0,VALID,22.8037,VALID,118,VALID,0.346094,
2012-04-09, 03:41:05,VALID,999.935,VALID,0,VALID,88.4654,VALID,0,VALID,22.7825,VALID,118,VALID,0.394922,
2012-04-09, 03:42:05,VALID,999.924,VALID,0,VALID,88.4578,VALID,0,VALID,22.7825,VALID,118,VALID,0.503906,
2012-04-09, 03:43:05,VALID,999.948,VALID,0,VALID,88.5036,VALID,0.104696,VALID,22.7825,VALID,69,VALID,0.721875,
2012-04-09, 03:44:05,VALID,999.909,VALID,0,VALID,88.4654,VALID,0,VALID,22.7452,VALID,63,VALID,0.832812,